| time (UTC) | temp F | wind direction | speed MPH | gust MPH | rain 1hr in | rain 24hr in | rain mn in | humidity % | barometer mb |
| 20260510094427 | 74 | 161 | 1.0 | 3.0 | 0.00 | 0.00 | 0.00 | 99 | 1008.9 |
| 20260510093923 | 74 | 163 | 3.0 | 6.0 | 0.00 | 0.00 | 0.00 | 99 | 1008.8 |
| 20260510093419 | 74 | 181 | 3.0 | 8.0 | 0.00 | 0.00 | 0.00 | 99 | 1009.0 |
| 20260510092915 | 74 | 185 | 3.0 | 6.0 | 0.00 | 0.00 | 0.00 | 99 | 1009.0 |
| 20260510092413 | 74 | 169 | 2.0 | 3.0 | 0.00 | 0.00 | 0.00 | 99 | 1009.0 |
| 20260510091913 | 74 | 171 | 1.0 | 2.0 | 0.00 | 0.00 | 0.00 | 99 | 1009.1 |
| 20260510091410 | 74 | 170 | 1.0 | 2.0 | 0.00 | 0.00 | 0.00 | 99 | 1008.9 |
| 20260510090907 | 74 | 172 | 1.0 | 5.0 | 0.00 | 0.00 | 0.00 | 99 | 1009.0 |
| 20260510090403 | 74 | 160 | 4.0 | 6.0 | 0.00 | 0.00 | 0.00 | 99 | 1008.9 |
| 20260510085859 | 74 | 145 | 1.0 | 2.0 | 0.00 | 0.00 | 0.00 | 99 | 1009.2 |
| 20260510085354 | 74 | 176 | 2.0 | 2.0 | 0.00 | 0.00 | 0.00 | 99 | 1009.3 |
| 20260510084850 | 74 | 154 | 0.0 | 1.0 | 0.00 | 0.00 | 0.00 | 99 | 1009.2 |
| 20260510084348 | 74 | 176 | 0.0 | 1.0 | 0.00 | 0.00 | 0.00 | 99 | 1009.2 |
| 20260510083844 | 74 | 144 | 2.0 | 5.0 | 0.00 | 0.00 | 0.00 | 99 | 1009.4 |
| 20260510083340 | 73 | 186 | 0.0 | 1.0 | 0.00 | 0.00 | 0.00 | 99 | 1009.1 |
| 20260510082836 | 73 | 195 | 0.0 | 0.0 | 0.00 | 0.00 | 0.00 | 99 | 1009.3 |
| 20260510082334 | 73 | 205 | 0.0 | 0.0 | 0.00 | 0.00 | 0.00 | 99 | 1008.9 |
| 20260510081832 | 72 | 203 | 0.0 | 0.0 | 0.00 | 0.00 | 0.00 | 99 | 1008.9 |
| 20260510081329 | 73 | 198 | 0.0 | 0.0 | 0.00 | 0.00 | 0.00 | 99 | 1008.9 |
| 20260510080825 | 73 | 185 | 0.0 | 0.0 | 0.00 | 0.00 | 0.00 | 99 | 1008.8 |
| 20260510080319 | 73 | 170 | 0.0 | 0.0 | 0.00 | 0.00 | 0.00 | 99 | 1008.9 |
| 20260510075817 | 74 | 176 | 0.0 | 0.0 | 0.00 | 0.00 | 0.00 | 99 | 1008.7 |
| 20260510075314 | 73 | 172 | 0.0 | 0.0 | 0.00 | 0.00 | 0.00 | 99 | 1008.8 |
| 20260510074811 | 74 | 180 | 0.0 | 0.0 | 0.00 | 0.00 | 0.00 | 99 | 1008.8 |
| 20260510074308 | 74 | 184 | 0.0 | 0.0 | 0.00 | 0.00 | 0.00 | 99 | 1008.8 |
| 20260510073804 | 74 | 177 | 0.0 | 0.0 | 0.00 | 0.00 | 0.00 | 99 | 1008.7 |
| 20260510073300 | 74 | 184 | 0.0 | 1.0 | 0.00 | 0.00 | 0.00 | 99 | 1008.9 |
| 20260510072755 | 74 | 169 | 1.0 | 2.0 | 0.00 | 0.00 | 0.00 | 99 | 1008.7 |
| 20260510072252 | 74 | 171 | 1.0 | 1.0 | 0.00 | 0.00 | 0.00 | 99 | 1008.7 |
| 20260510071749 | 74 | 144 | 2.0 | 2.0 | 0.00 | 0.00 | 0.00 | 99 | 1008.7 |
| 20260510071246 | 74 | 173 | 1.0 | 1.0 | 0.00 | 0.00 | 0.00 | 99 | 1008.6 |
| 20260510070744 | 74 | 188 | 2.0 | 2.0 | 0.00 | 0.00 | 0.00 | 99 | 1008.6 |
| 20260510070241 | 74 | 179 | 0.0 | 2.0 | 0.00 | 0.00 | 0.00 | 99 | 1008.9 |
| 20260510065735 | 74 | 163 | 3.0 | 5.0 | 0.00 | 0.00 | 0.00 | 99 | 1008.8 |
| 20260510065232 | 74 | 158 | 2.0 | 6.0 | 0.00 | 0.00 | 0.00 | 99 | 1008.8 |
| 20260510064728 | 74 | 220 | 2.0 | 6.0 | 0.00 | 0.00 | 0.00 | 99 | 1009.0 |
| 20260510064226 | 74 | 150 | 5.0 | 6.0 | 0.00 | 0.00 | 0.00 | 99 | 1008.7 |
| 20260510063723 | 74 | 137 | 5.0 | 7.0 | 0.00 | 0.00 | 0.00 | 99 | 1009.0 |
| 20260510063219 | 74 | 117 | 2.0 | 6.0 | 0.00 | 0.00 | 0.00 | 99 | 1009.2 |
| 20260510062716 | 74 | 156 | 3.0 | 6.0 | 0.00 | 0.00 | 0.00 | 99 | 1009.2 |
| 20260510062212 | 75 | 192 | 1.0 | 3.0 | 0.00 | 0.00 | 0.00 | 99 | 1009.2 |
| 20260510061707 | 75 | 91 | 1.0 | 3.0 | 0.00 | 0.00 | 0.00 | 99 | 1009.2 |
| 20260510061204 | 75 | 161 | 4.0 | 5.0 | 0.00 | 0.00 | 0.00 | 99 | 1009.4 |
| 20260510060701 | 75 | 155 | 1.0 | 3.0 | 0.00 | 0.00 | 0.00 | 99 | 1009.3 |
| 20260510060157 | 75 | 147 | 2.0 | 3.0 | 0.00 | 0.00 | 0.00 | 99 | 1009.4 |
| 20260510055654 | 75 | 146 | 0.0 | 3.0 | 0.00 | 0.00 | 0.00 | 99 | 1009.3 |
| 20260510055152 | 75 | 179 | 0.0 | 1.0 | 0.00 | 0.00 | 0.00 | 99 | 1009.5 |
| 20260510054647 | 75 | 156 | 2.0 | 5.0 | 0.00 | 0.00 | 0.00 | 99 | 1009.4 |
| 20260510054143 | 75 | 177 | 1.0 | 3.0 | 0.00 | 0.00 | 0.00 | 99 | 1009.0 |
| 20260510053642 | 75 | 177 | 2.0 | 5.0 | 0.00 | 0.00 | 0.00 | 99 | 1009.4 |
| 20260510053139 | 75 | 145 | 2.0 | 6.0 | 0.00 | 0.00 | 0.00 | 98 | 1009.2 |
| 20260510052635 | 75 | 198 | 2.0 | 3.0 | 0.00 | 0.00 | 0.00 | 98 | 1009.4 |
| 20260510052131 | 75 | 166 | 1.0 | 2.0 | 0.00 | 0.00 | 0.00 | 97 | 1009.4 |
| 20260510051627 | 75 | 123 | 1.0 | 6.0 | 0.00 | 0.00 | 0.00 | 96 | 1009.5 |
| 20260510051123 | 75 | 159 | 3.0 | 6.0 | 0.00 | 0.00 | 0.00 | 96 | 1009.6 |
| 20260510050621 | 75 | 151 | 1.0 | 6.0 | 0.00 | 0.00 | 0.00 | 96 | 1009.6 |
| 20260510050118 | 75 | 144 | 2.0 | 3.0 | 0.00 | 0.00 | 0.00 | 96 | 1009.7 |
| 20260510045615 | 75 | 158 | 1.0 | 3.0 | 0.00 | 0.29 | 0.29 | 95 | 1009.6 |
| 20260510045111 | 75 | 135 | 0.0 | 3.0 | 0.00 | 0.29 | 0.29 | 95 | 1009.8 |
| 20260510044608 | 75 | 135 | 1.0 | 5.0 | 0.00 | 0.29 | 0.29 | 95 | 1009.6 |
| 20260510044105 | 75 | 143 | 0.0 | 2.0 | 0.00 | 0.29 | 0.29 | 95 | 1009.6 |
| 20260510043600 | 75 | 161 | 0.0 | 2.0 | 0.00 | 0.29 | 0.29 | 94 | 1009.6 |
| 20260510043057 | 75 | 157 | 1.0 | 2.0 | 0.00 | 0.29 | 0.29 | 94 | 1009.4 |
| 20260510042556 | 75 | 139 | 2.0 | 5.0 | 0.00 | 0.29 | 0.29 | 94 | 1009.7 |
| 20260510042051 | 75 | 137 | 2.0 | 3.0 | 0.00 | 0.29 | 0.29 | 93 | 1009.6 |
| 20260510041548 | 75 | 146 | 2.0 | 3.0 | 0.00 | 0.29 | 0.29 | 93 | 1009.6 |
| 20260510041046 | 75 | 163 | 1.0 | 2.0 | 0.00 | 0.29 | 0.29 | 92 | 1009.6 |
| 20260510040542 | 75 | 153 | 1.0 | 2.0 | 0.00 | 0.29 | 0.29 | 92 | 1009.4 |
| 20260510040038 | 75 | 175 | 0.0 | 1.0 | 0.00 | 0.29 | 0.29 | 91 | 1009.5 |
| 20260510035535 | 75 | 141 | 2.0 | 3.0 | 0.00 | 0.29 | 0.29 | 91 | 1009.5 |
| 20260510035034 | 75 | 182 | 1.0 | 2.0 | 0.00 | 0.29 | 0.29 | 91 | 1009.6 |
| 20260510034533 | 74 | 158 | 1.0 | 3.0 | 0.00 | 0.29 | 0.29 | 92 | 1009.9 |
| 20260510034029 | 74 | 200 | 0.0 | 1.0 | 0.00 | 0.29 | 0.29 | 93 | 1009.8 |
| 20260510033525 | 73 | 185 | 0.0 | 1.0 | 0.00 | 0.29 | 0.29 | 94 | 1009.9 |
| 20260510033023 | 73 | 163 | 0.0 | 2.0 | 0.00 | 0.29 | 0.29 | 96 | 1009.7 |
| 20260510032519 | 72 | 189 | 0.0 | 2.0 | 0.00 | 0.29 | 0.29 | 99 | 1009.7 |
| 20260510032015 | 71 | 137 | 0.0 | 1.0 | 0.00 | 0.29 | 0.29 | 99 | 1009.7 |
| 20260510031510 | 71 | 93 | 0.0 | 0.0 | 0.00 | 0.29 | 0.29 | 99 | 1009.5 |
| 20260510031006 | 71 | 185 | 0.0 | 0.0 | 0.00 | 0.29 | 0.29 | 99 | 1009.4 |
| 20260510030502 | 71 | 144 | 0.0 | 1.0 | 0.00 | 0.29 | 0.29 | 99 | 1009.2 |
| 20260510025959 | 71 | 181 | 0.0 | 0.0 | 0.00 | 0.29 | 0.29 | 99 | 1009.0 |
| 20260510025456 | 71 | 183 | 0.0 | 0.0 | 0.00 | 0.29 | 0.29 | 99 | 1008.6 |
| 20260510024954 | 71 | 184 | 0.0 | 0.0 | 0.00 | 0.29 | 0.29 | 99 | 1008.8 |
| 20260510024450 | 71 | 181 | 0.0 | 0.0 | 0.00 | 0.29 | 0.29 | 99 | 1008.6 |
| 20260510023946 | 71 | 178 | 0.0 | 0.0 | 0.00 | 0.29 | 0.29 | 99 | 1008.5 |
| 20260510023443 | 72 | 189 | 0.0 | 0.0 | 0.00 | 0.29 | 0.29 | 99 | 1008.4 |
| 20260510022939 | 72 | 191 | 0.0 | 0.0 | 0.00 | 0.29 | 0.29 | 99 | 1008.2 |
| 20260510022438 | 71 | 180 | 0.0 | 1.0 | 0.00 | 0.29 | 0.29 | 99 | 1008.2 |
| 20260510021938 | 71 | 180 | 0.0 | 1.0 | 0.00 | 0.29 | 0.29 | 99 | 1008.1 |
| 20260510021436 | 72 | 192 | 2.0 | 3.0 | 0.00 | 0.29 | 0.29 | 99 | 1007.7 |
| 20260510020932 | 71 | 183 | 2.0 | 5.0 | 0.00 | 0.29 | 0.29 | 99 | 1007.8 |
| 20260510020427 | 72 | 173 | 2.0 | 5.0 | 0.00 | 0.29 | 0.29 | 99 | 1007.8 |
| 20260510015923 | 72 | 221 | 4.0 | 5.0 | 0.00 | 0.29 | 0.29 | 99 | 1007.7 |
| 20260510015419 | 72 | 178 | 0.0 | 1.0 | 0.00 | 0.29 | 0.29 | 99 | 1007.3 |
| 20260510014914 | 71 | 202 | 1.0 | 2.0 | 0.00 | 0.29 | 0.29 | 99 | 1007.0 |
| 20260510014412 | 71 | 199 | 0.0 | 1.0 | 0.00 | 0.29 | 0.29 | 99 | 1006.8 |
| 20260510013908 | 71 | 196 | 0.0 | 1.0 | 0.00 | 0.29 | 0.29 | 99 | 1006.7 |
| 20260510013403 | 71 | 213 | 0.0 | 1.0 | 0.00 | 0.29 | 0.29 | 99 | 1006.9 |
| 20260510012858 | 71 | 239 | 4.0 | 6.0 | 0.00 | 0.29 | 0.29 | 99 | 1006.7 |
| 20260510012354 | 71 | 182 | 0.0 | 0.0 | 0.00 | 0.29 | 0.29 | 99 | 1006.6 |
| 20260510011848 | 71 | 189 | 0.0 | 0.0 | 0.00 | 0.29 | 0.29 | 99 | 1006.4 |
| 20260510011344 | 70 | 189 | 0.0 | 0.0 | 0.00 | 0.29 | 0.29 | 99 | 1006.5 |
| 20260510010840 | 70 | 189 | 0.0 | 0.0 | 0.00 | 0.29 | 0.29 | 99 | 1006.5 |
| 20260510010338 | 70 | 212 | 2.0 | 2.0 | 0.00 | 0.29 | 0.29 | 99 | 1006.5 |
| 20260510005834 | 70 | 211 | 2.0 | 3.0 | 0.00 | 0.29 | 0.29 | 99 | 1006.6 |
| 20260510005331 | 69 | 217 | 3.0 | 6.0 | 0.00 | 0.29 | 0.29 | 99 | 1006.5 |
| 20260510004828 | 69 | 213 | 1.0 | 2.0 | 0.07 | 0.29 | 0.29 | 99 | 1006.3 |
| 20260510004326 | 69 | 199 | 0.0 | 2.0 | 0.19 | 0.29 | 0.29 | 99 | 1006.3 |
| 20260510003823 | 70 | 234 | 3.0 | 3.0 | 0.35 | 0.28 | 0.28 | 99 | 1006.5 |
| 20260510003320 | 70 | 196 | 0.0 | 0.0 | 0.42 | 0.25 | 0.25 | 97 | 1006.4 |
| 20260510002819 | 70 | 181 | 0.0 | 0.0 | 0.40 | 0.21 | 0.21 | 96 | 1007.0 |
| 20260510002316 | 70 | 253 | 1.0 | 6.0 | 0.50 | 0.18 | 0.18 | 95 | 1007.2 |
| 20260510001813 | 70 | 277 | 1.0 | 3.0 | 0.38 | 0.14 | 0.14 | 94 | 1007.2 |
| 20260510001311 | 71 | 275 | 4.0 | 7.0 | 0.17 | 0.10 | 0.10 | 92 | 1007.3 |
| 20260510000806 | 72 | 344 | 5.0 | 8.0 | 0.12 | 0.08 | 0.08 | 90 | 1007.0 |
| 20260510000305 | 73 | 352 | 2.0 | 6.0 | 0.00 | 0.06 | 0.06 | 86 | 1006.5 |
| 20260509235801 | 73 | 41 | 1.0 | 7.0 | 0.00 | 0.06 | 0.06 | 85 | 1006.3 |
| 20260509235258 | 72 | 50 | 2.0 | 10.0 | 0.00 | 0.06 | 0.06 | 87 | 1006.4 |
| 20260509234753 | 73 | 66 | 2.0 | 9.0 | 0.00 | 0.06 | 0.06 | 93 | 1005.9 |
| 20260509234250 | 79 | 169 | 0.0 | 0.0 | 0.00 | 0.06 | 0.06 | 96 | 1005.9 |
| 20260509233749 | 79 | 169 | 0.0 | 0.0 | 0.00 | 0.06 | 0.06 | 96 | 1005.8 |
| 20260509233246 | 79 | 169 | 0.0 | 0.0 | 0.17 | 0.06 | 0.06 | 96 | 1005.9 |
| 20260509232742 | 79 | 169 | 0.0 | 0.0 | 0.17 | 0.06 | 0.06 | 96 | 1006.0 |
| 20260509232239 | 83 | 186 | 2.0 | 2.0 | 0.07 | 0.03 | 0.03 | 91 | 1006.4 |
| 20260509231735 | 83 | 186 | 2.0 | 2.0 | 0.19 | 0.03 | 0.03 | 91 | 1006.1 |
| 20260509231233 | 82 | 191 | 0.0 | 1.0 | 0.07 | 0.01 | 0.01 | 88 | 1006.1 |
| 20260509230730 | 85 | 207 | 2.0 | 3.0 | 0.00 | 0.00 | 0.00 | 83 | 1006.2 |
| 20260509230227 | 87 | 189 | 0.0 | 0.0 | 0.00 | 0.00 | 0.00 | 75 | 1005.9 |
| 20260509225722 | 87 | 190 | 1.0 | 2.0 | 0.00 | 0.00 | 0.00 | 74 | 1005.8 |
| 20260509225218 | 87 | 190 | 1.0 | 2.0 | 0.00 | 0.00 | 0.00 | 74 | 1005.8 |
| 20260509224714 | 87 | 190 | 1.0 | 2.0 | 0.00 | 0.00 | 0.00 | 74 | 1005.6 |
| 20260509224211 | 91 | 184 | 2.0 | 2.0 | 0.00 | 0.00 | 0.00 | 67 | 1005.5 |
| 20260509223708 | 91 | 184 | 2.0 | 2.0 | 0.00 | 0.00 | 0.00 | 67 | 1005.5 |
| 20260509223205 | 91 | 184 | 2.0 | 2.0 | 0.00 | 0.00 | 0.00 | 67 | 1005.6 |
| 20260509222702 | 91 | 184 | 2.0 | 2.0 | 0.00 | 0.00 | 0.00 | 67 | 1005.5 |
| 20260509222157 | 91 | 184 | 2.0 | 2.0 | 0.00 | 0.00 | 0.00 | 67 | 1005.5 |
| 20260509221648 | 91 | 184 | 2.0 | 2.0 | 0.00 | 0.00 | 0.00 | 67 | 1005.4 |
| 20260509221144 | 91 | 184 | 2.0 | 2.0 | 0.00 | 0.00 | 0.00 | 67 | 1005.5 |
| 20260509220640 | 91 | 184 | 2.0 | 2.0 | 0.00 | 0.00 | 0.00 | 67 | 1005.4 |
| 20260509220136 | 91 | 178 | 0.0 | 1.0 | 0.00 | 0.00 | 0.00 | 68 | 1005.5 |
| 20260509215632 | 91 | 198 | 0.0 | 0.0 | 0.00 | 0.00 | 0.00 | 65 | 1005.5 |
| 20260509215129 | 91 | 198 | 0.0 | 0.0 | 0.00 | 0.00 | 0.00 | 65 | 1005.5 |
| 20260509214626 | 91 | 198 | 0.0 | 0.0 | 0.00 | 0.00 | 0.00 | 65 | 1005.5 |
| 20260509214123 | 91 | 198 | 0.0 | 0.0 | 0.00 | 0.00 | 0.00 | 65 | 1005.6 |
| 20260509213619 | 91 | 200 | 0.0 | 0.0 | 0.00 | 0.00 | 0.00 | 68 | 1005.5 |
| 20260509213116 | 91 | 200 | 0.0 | 0.0 | 0.00 | 0.00 | 0.00 | 68 | 1005.3 |
| 20260509212613 | 91 | 200 | 0.0 | 0.0 | 0.00 | 0.00 | 0.00 | 68 | 1005.5 |
| 20260509212110 | 91 | 200 | 0.0 | 0.0 | 0.00 | 0.00 | 0.00 | 68 | 1005.6 |
| 20260509211606 | 91 | 200 | 0.0 | 0.0 | 0.00 | 0.00 | 0.00 | 68 | 1005.6 |
| 20260509211103 | 91 | 200 | 0.0 | 0.0 | 0.00 | 0.00 | 0.00 | 68 | 1005.6 |
| 20260509210559 | 91 | 200 | 0.0 | 0.0 | 0.00 | 0.00 | 0.00 | 68 | 1005.5 |
| 20260509210056 | 92 | 187 | 3.0 | 3.0 | 0.00 | 0.00 | 0.00 | 65 | 1005.8 |
| 20260509205556 | 91 | 174 | 0.0 | 2.0 | 0.00 | 0.00 | 0.00 | 65 | 1006.0 |
| 20260509205051 | 91 | 225 | 2.0 | 2.0 | 0.00 | 0.00 | 0.00 | 68 | 1006.0 |
| 20260509204548 | 91 | 225 | 2.0 | 2.0 | 0.00 | 0.00 | 0.00 | 68 | 1005.8 |
| 20260509204044 | 90 | 198 | 1.0 | 1.0 | 0.00 | 0.00 | 0.00 | 70 | 1006.0 |
| 20260509203540 | 90 | 212 | 2.0 | 2.0 | 0.00 | 0.00 | 0.00 | 67 | 1006.2 |
| 20260509203039 | 90 | 204 | 0.0 | 0.0 | 0.00 | 0.00 | 0.00 | 71 | 1006.1 |
| 20260509202533 | 90 | 216 | 1.0 | 1.0 | 0.00 | 0.00 | 0.00 | 70 | 1006.0 |
| 20260509202028 | 89 | 210 | 1.0 | 2.0 | 0.00 | 0.00 | 0.00 | 71 | 1006.4 |
| 20260509201518 | 89 | 210 | 1.0 | 2.0 | 0.00 | 0.00 | 0.00 | 71 | 1006.5 |
| 20260509201016 | 89 | 210 | 1.0 | 2.0 | 0.00 | 0.00 | 0.00 | 71 | 1006.5 |
| 20260509200516 | 89 | 210 | 1.0 | 2.0 | 0.00 | 0.00 | 0.00 | 71 | 1006.6 |
| 20260509200013 | 89 | 210 | 1.0 | 2.0 | 0.00 | 0.00 | 0.00 | 71 | 1006.5 |
| 20260509195508 | 89 | 203 | 1.0 | 2.0 | 0.00 | 0.00 | 0.00 | 70 | 1006.5 |
| 20260509195008 | 87 | 228 | 3.0 | 3.0 | 0.00 | 0.00 | 0.00 | 73 | 1006.5 |
| 20260509194504 | 87 | 178 | 1.0 | 1.0 | 0.00 | 0.00 | 0.00 | 74 | 1006.7 |
| 20260509194001 | 87 | 202 | 1.0 | 2.0 | 0.00 | 0.00 | 0.00 | 75 | 1006.6 |
| 20260509193501 | 89 | 175 | 1.0 | 2.0 | 0.00 | 0.00 | 0.00 | 73 | 1006.7 |
| 20260509192957 | 88 | 161 | 3.0 | 3.0 | 0.00 | 0.00 | 0.00 | 73 | 1006.7 |
| 20260509192454 | 88 | 212 | 1.0 | 1.0 | 0.00 | 0.00 | 0.00 | 71 | 1006.8 |
| 20260509191949 | 88 | 225 | 3.0 | 3.0 | 0.00 | 0.00 | 0.00 | 71 | 1006.7 |
| 20260509191444 | 88 | 184 | 1.0 | 2.0 | 0.00 | 0.00 | 0.00 | 71 | 1006.8 |
| 20260509190940 | 88 | 184 | 1.0 | 2.0 | 0.00 | 0.00 | 0.00 | 71 | 1006.5 |
| 20260509190437 | 88 | 162 | 1.0 | 2.0 | 0.00 | 0.00 | 0.00 | 72 | 1006.7 |
| 20260509185935 | 87 | 199 | 0.0 | 0.0 | 0.00 | 0.00 | 0.00 | 74 | 1006.8 |
| 20260509185432 | 87 | 317 | 3.0 | 3.0 | 0.00 | 0.00 | 0.00 | 74 | 1006.8 |
| 20260509184929 | 86 | 211 | 0.0 | 3.0 | 0.00 | 0.00 | 0.00 | 77 | 1007.0 |
| 20260509184427 | 86 | 197 | 0.0 | 5.0 | 0.00 | 0.00 | 0.00 | 77 | 1007.0 |
| 20260509183923 | 85 | 299 | 3.0 | 3.0 | 0.00 | 0.00 | 0.00 | 76 | 1007.0 |
| 20260509183417 | 86 | 218 | 2.0 | 3.0 | 0.00 | 0.00 | 0.00 | 75 | 1007.0 |
| 20260509182914 | 85 | 201 | 2.0 | 2.0 | 0.00 | 0.00 | 0.00 | 76 | 1007.2 |
| 20260509182411 | 85 | 217 | 1.0 | 1.0 | 0.00 | 0.00 | 0.00 | 77 | 1007.2 |
| 20260509181908 | 85 | 217 | 1.0 | 1.0 | 0.00 | 0.00 | 0.00 | 77 | 1007.5 |
| 20260509181406 | 85 | 217 | 1.0 | 1.0 | 0.00 | 0.00 | 0.00 | 77 | 1007.6 |
| 20260509180903 | 85 | 217 | 1.0 | 1.0 | 0.00 | 0.00 | 0.00 | 77 | 1007.5 |
| 20260509180358 | 86 | 191 | 0.0 | 0.0 | 0.00 | 0.00 | 0.00 | 74 | 1007.8 |
| 20260509175855 | 86 | 191 | 0.0 | 0.0 | 0.00 | 0.00 | 0.00 | 74 | 1007.7 |
| 20260509175351 | 86 | 191 | 0.0 | 0.0 | 0.00 | 0.00 | 0.00 | 74 | 1007.7 |
| 20260509174848 | 86 | 145 | 0.0 | 1.0 | 0.00 | 0.00 | 0.00 | 77 | 1007.7 |
| 20260509174344 | 85 | 213 | 4.0 | 7.0 | 0.00 | 0.00 | 0.00 | 79 | 1007.7 |
| 20260509173840 | 84 | 205 | 3.0 | 5.0 | 0.00 | 0.00 | 0.00 | 81 | 1007.9 |
| 20260509173335 | 84 | 160 | 2.0 | 5.0 | 0.00 | 0.00 | 0.00 | 82 | 1008.0 |
| 20260509172831 | 84 | 210 | 2.0 | 5.0 | 0.00 | 0.00 | 0.00 | 82 | 1008.4 |
| 20260509172328 | 83 | 203 | 3.0 | 3.0 | 0.00 | 0.00 | 0.00 | 82 | 1008.6 |
| 20260509171824 | 83 | 190 | 0.0 | 2.0 | 0.00 | 0.00 | 0.00 | 84 | 1008.4 |
| 20260509171320 | 82 | 183 | 1.0 | 2.0 | 0.00 | 0.00 | 0.00 | 85 | 1008.6 |
| 20260509170817 | 83 | 171 | 2.0 | 3.0 | 0.00 | 0.00 | 0.00 | 88 | 1008.5 |
| 20260509170312 | 82 | 201 | 0.0 | 1.0 | 0.00 | 0.00 | 0.00 | 88 | 1008.6 |
| 20260509165812 | 83 | 210 | 2.0 | 3.0 | 0.00 | 0.00 | 0.00 | 86 | 1008.7 |
| 20260509165307 | 84 | 170 | 0.0 | 2.0 | 0.00 | 0.00 | 0.00 | 87 | 1008.7 |
| 20260509164803 | 82 | 192 | 0.0 | 0.0 | 0.00 | 0.00 | 0.00 | 90 | 1008.5 |
| 20260509164300 | 82 | 161 | 0.0 | 2.0 | 0.00 | 0.00 | 0.00 | 90 | 1008.7 |
| 20260509163756 | 81 | 207 | 3.0 | 5.0 | 0.00 | 0.00 | 0.00 | 90 | 1008.8 |
| 20260509163253 | 81 | 200 | 1.0 | 2.0 | 0.00 | 0.00 | 0.00 | 93 | 1008.4 |
| 20260509162752 | 80 | 187 | 0.0 | 0.0 | 0.00 | 0.00 | 0.00 | 94 | 1008.6 |
| 20260509162245 | 80 | 182 | 0.0 | 1.0 | 0.00 | 0.00 | 0.00 | 94 | 1008.4 |
| 20260509161742 | 80 | 189 | 0.0 | 0.0 | 0.00 | 0.00 | 0.00 | 94 | 1008.5 |
| 20260509161238 | 80 | 171 | 0.0 | 1.0 | 0.00 | 0.00 | 0.00 | 94 | 1008.4 |
| 20260509160733 | 80 | 197 | 0.0 | 1.0 | 0.00 | 0.00 | 0.00 | 95 | 1008.4 |
| 20260509160230 | 80 | 203 | 0.0 | 0.0 | 0.00 | 0.00 | 0.00 | 95 | 1008.4 |
| 20260509155724 | 79 | 188 | 0.0 | 2.0 | 0.00 | 0.00 | 0.00 | 96 | 1008.5 |
| 20260509155221 | 79 | 224 | 0.0 | 1.0 | 0.00 | 0.00 | 0.00 | 96 | 1008.3 |
| 20260509154717 | 79 | 186 | 0.0 | 0.0 | 0.00 | 0.00 | 0.00 | 96 | 1008.2 |
| 20260509154215 | 78 | 181 | 0.0 | 0.0 | 0.00 | 0.00 | 0.00 | 98 | 1008.3 |
| 20260509153712 | 78 | 201 | 2.0 | 2.0 | 0.00 | 0.00 | 0.00 | 98 | 1008.3 |
| 20260509153208 | 78 | 114 | 0.0 | 1.0 | 0.00 | 0.00 | 0.00 | 99 | 1008.1 |
| 20260509152704 | 77 | 202 | 0.0 | 2.0 | 0.00 | 0.00 | 0.00 | 99 | 1008.3 |
| 20260509152201 | 77 | 175 | 1.0 | 1.0 | 0.00 | 0.00 | 0.00 | 99 | 1008.2 |
| 20260509151658 | 77 | 202 | 0.0 | 1.0 | 0.00 | 0.00 | 0.00 | 99 | 1008.5 |
| 20260509151155 | 77 | 191 | 0.0 | 1.0 | 0.00 | 0.00 | 0.00 | 99 | 1008.2 |
| 20260509150653 | 77 | 169 | 1.0 | 1.0 | 0.00 | 0.00 | 0.00 | 99 | 1008.2 |
| 20260509150151 | 77 | 193 | 0.0 | 1.0 | 0.00 | 0.00 | 0.00 | 99 | 1008.2 |
| 20260509145647 | 76 | 175 | 0.0 | 1.0 | 0.00 | 0.00 | 0.00 | 99 | 1008.1 |
| 20260509145142 | 76 | 181 | 0.0 | 0.0 | 0.00 | 0.00 | 0.00 | 99 | 1008.2 |
| 20260509144639 | 76 | 175 | 0.0 | 1.0 | 0.00 | 0.00 | 0.00 | 99 | 1008.1 |
| 20260509144136 | 76 | 180 | 0.0 | 0.0 | 0.00 | 0.00 | 0.00 | 99 | 1008.1 |
| 20260509143633 | 76 | 185 | 0.0 | 0.0 | 0.00 | 0.00 | 0.00 | 99 | 1007.9 |
| 20260509143131 | 76 | 185 | 0.0 | 0.0 | 0.00 | 0.00 | 0.00 | 99 | 1008.0 |
| 20260509142626 | 76 | 176 | 0.0 | 0.0 | 0.00 | 0.00 | 0.00 | 99 | 1007.7 |
| 20260509142123 | 75 | 176 | 0.0 | 0.0 | 0.00 | 0.00 | 0.00 | 99 | 1007.7 |
| 20260509141619 | 75 | 177 | 0.0 | 2.0 | 0.00 | 0.00 | 0.00 | 99 | 1007.3 |
| 20260509141115 | 75 | 159 | 1.0 | 1.0 | 0.00 | 0.00 | 0.00 | 99 | 1007.2 |
| 20260509140612 | 75 | 185 | 0.0 | 0.0 | 0.00 | 0.00 | 0.00 | 99 | 1007.3 |
| 20260509140110 | 75 | 192 | 0.0 | 0.0 | 0.00 | 0.00 | 0.00 | 99 | 1007.2 |
| 20260509135607 | 75 | 185 | 0.0 | 0.0 | 0.00 | 0.00 | 0.00 | 99 | 1007.3 |
| 20260509135105 | 75 | 185 | 0.0 | 0.0 | 0.00 | 0.00 | 0.00 | 99 | 1007.8 |
| 20260509134601 | 75 | 185 | 0.0 | 0.0 | 0.00 | 0.00 | 0.00 | 99 | 1007.8 |
| 20260509134059 | 75 | 191 | 0.0 | 1.0 | 0.00 | 0.00 | 0.00 | 99 | 1007.9 |
| 20260509133556 | 75 | 179 | 0.0 | 0.0 | 0.00 | 0.00 | 0.00 | 99 | 1008.1 |
| 20260509133053 | 75 | 198 | 1.0 | 3.0 | 0.00 | 0.00 | 0.00 | 99 | 1008.2 |
| 20260509132552 | 75 | 178 | 1.0 | 2.0 | 0.00 | 0.00 | 0.00 | 99 | 1008.2 |
| 20260509132050 | 75 | 195 | 0.0 | 0.0 | 0.00 | 0.00 | 0.00 | 99 | 1008.5 |
| 20260509131545 | 75 | 222 | 1.0 | 2.0 | 0.00 | 0.00 | 0.00 | 99 | 1008.6 |
| 20260509131042 | 75 | 184 | 0.0 | 0.0 | 0.00 | 0.00 | 0.00 | 99 | 1008.7 |
| 20260509130537 | 75 | 186 | 1.0 | 1.0 | 0.00 | 0.00 | 0.00 | 99 | 1008.7 |
| 20260509130035 | 75 | 195 | 1.0 | 1.0 | 0.00 | 0.00 | 0.00 | 99 | 1009.0 |
| 20260509125531 | 75 | 211 | 1.0 | 2.0 | 0.00 | 0.00 | 0.00 | 99 | 1008.8 |
| 20260509125028 | 75 | 205 | 0.0 | 0.0 | 0.00 | 0.00 | 0.00 | 99 | 1008.5 |
| 20260509124524 | 75 | 186 | 0.0 | 2.0 | 0.00 | 0.00 | 0.00 | 99 | 1008.1 |
| 20260509124022 | 75 | 182 | 1.0 | 2.0 | 0.00 | 0.00 | 0.00 | 99 | 1008.2 |
| 20260509123520 | 75 | 200 | 0.0 | 0.0 | 0.00 | 0.00 | 0.00 | 99 | 1008.4 |
| 20260509123016 | 74 | 221 | 1.0 | 2.0 | 0.00 | 0.00 | 0.00 | 99 | 1008.5 |
| 20260509122512 | 74 | 219 | 0.0 | 1.0 | 0.00 | 0.00 | 0.00 | 99 | 1008.6 |
| 20260509122009 | 74 | 195 | 0.0 | 0.0 | 0.00 | 0.00 | 0.00 | 99 | 1008.4 |
| 20260509121506 | 74 | 184 | 0.0 | 0.0 | 0.00 | 0.00 | 0.00 | 99 | 1008.5 |
| 20260509121004 | 74 | 169 | 0.0 | 1.0 | 0.00 | 0.00 | 0.00 | 99 | 1008.5 |
| 20260509120502 | 74 | 193 | 0.0 | 0.0 | 0.00 | 0.00 | 0.00 | 99 | 1008.3 |
| 20260509120000 | 74 | 189 | 0.0 | 1.0 | 0.00 | 0.00 | 0.00 | 99 | 1008.6 |
| 20260509115456 | 74 | 202 | 0.0 | 0.0 | 0.00 | 0.00 | 0.00 | 99 | 1008.9 |
| 20260509114954 | 74 | 192 | 0.0 | 0.0 | 0.00 | 0.00 | 0.00 | 99 | 1008.5 |
| 20260509114452 | 74 | 211 | 0.0 | 1.0 | 0.00 | 0.00 | 0.00 | 99 | 1008.0 |
| 20260509113951 | 73 | 192 | 0.0 | 0.0 | 0.00 | 0.00 | 0.00 | 99 | 1008.3 |
| 20260509113448 | 73 | 183 | 0.0 | 0.0 | 0.00 | 0.00 | 0.00 | 99 | 1008.0 |
| 20260509112945 | 73 | 175 | 0.0 | 0.0 | 0.00 | 0.00 | 0.00 | 99 | 1008.1 |
| 20260509112443 | 73 | 174 | 0.0 | 0.0 | 0.00 | 0.00 | 0.00 | 99 | 1008.0 |
| 20260509111939 | 73 | 176 | 0.0 | 0.0 | 0.00 | 0.00 | 0.00 | 99 | 1008.0 |
| 20260509111437 | 73 | 182 | 0.0 | 0.0 | 0.00 | 0.00 | 0.00 | 99 | 1007.8 |
| 20260509110934 | 73 | 190 | 0.0 | 0.0 | 0.00 | 0.00 | 0.00 | 99 | 1007.7 |
| 20260509110429 | 73 | 188 | 0.0 | 0.0 | 0.00 | 0.00 | 0.00 | 99 | 1008.0 |
| 20260509105928 | 73 | 181 | 0.0 | 0.0 | 0.00 | 0.00 | 0.00 | 99 | 1007.8 |
| 20260509105426 | 73 | 189 | 0.0 | 0.0 | 0.00 | 0.00 | 0.00 | 99 | 1008.1 |
| 20260509104923 | 73 | 182 | 0.0 | 0.0 | 0.00 | 0.00 | 0.00 | 99 | 1008.0 |
| 20260509104420 | 73 | 185 | 0.0 | 0.0 | 0.00 | 0.00 | 0.00 | 99 | 1007.8 |
| 20260509103917 | 73 | 182 | 0.0 | 0.0 | 0.00 | 0.00 | 0.00 | 99 | 1007.8 |
| 20260509103414 | 73 | 174 | 0.0 | 0.0 | 0.00 | 0.00 | 0.00 | 99 | 1007.7 |
| 20260509102913 | 73 | 187 | 0.0 | 0.0 | 0.00 | 0.00 | 0.00 | 99 | 1007.7 |
| 20260509102410 | 74 | 187 | 0.0 | 0.0 | 0.00 | 0.00 | 0.00 | 99 | 1007.8 |
| 20260509101905 | 74 | 187 | 0.0 | 0.0 | 0.00 | 0.00 | 0.00 | 99 | 1007.7 |
| 20260509101401 | 74 | 187 | 0.0 | 0.0 | 0.00 | 0.00 | 0.00 | 99 | 1007.8 |
| 20260509100900 | 74 | 188 | 0.0 | 0.0 | 0.00 | 0.00 | 0.00 | 99 | 1007.7 |
| 20260509100356 | 74 | 188 | 0.0 | 0.0 | 0.00 | 0.00 | 0.00 | 99 | 1007.8 |
| 20260509095853 | 74 | 194 | 0.0 | 0.0 | 0.00 | 0.00 | 0.00 | 99 | 1007.7 |
| 20260509095350 | 74 | 186 | 0.0 | 0.0 | 0.00 | 0.00 | 0.00 | 99 | 1007.6 |
| 20260509094847 | 74 | 176 | 0.0 | 0.0 | 0.00 | 0.00 | 0.00 | 99 | 1007.4 |